weather.gov     
National Weather Service

Regional Weather Roundup
NWS Homepage
This page is being discontinued on March 12, 2014.
The same data is available at this site. Please update your bookmarks.
Thank you, and we apologize for the inconvenience.
Please send an email to SR-SRH.Webmaster@noaa.gov with any concerns.


Current Version
Previous Version:    01  02  03  04  05  06  07  08  09  10  11  12  13  14  15  16  17  18  19  20  21  22  23  24  25  26  
[Printable]
022
ASUS42 KTBW 220910
RWRFL
FLORIDA REGIONAL WEATHER ROUNDUP
NATIONAL WEATHER SERVICE TAMPA BAY RUSKIN FL
500 AM EDT FRI AUG 22 2014

NOTE: "FAIR" INDICATES FEW OR NO CLOUDS BELOW 12,000 FEET WITH NO
SIGNIFICANT WEATHER AND/OR OBSTRUCTIONS TO VISIBILITY.


FLZ001>010-012>015-112-114-115-221000-
PANHANDLE FLORIDA

CITY           SKY/WX    TMP DP  RH WIND       PRES   REMARKS
PENSACOLA      PTCLDY    78  74  87 W6        30.05S
PENSACOLA NAS  PTCLDY    76  74  93 NW3       30.05S
MILTON NAS     PTCLDY    76  73  91 NW3       30.07R
CRESTVIEW      CLEAR     74  73  97 CALM      30.07S
DUKE FIELD     FAIR      76  75  99 NW3       30.06S
VALPARAISO     PTCLDY    78  75  89 NW3       30.04F
MARY ESTHER    PTCLDY    78  71  81 N5        30.04S
TRI COUNTY     FAIR      75  74  96 CALM      30.06S FOG
PANAMA CITY    FAIR      77  74  90 CALM      30.04S
TYNDALL AFB    CLEAR     77  77 100 S1        30.05S
APALACHICOLA   CLEAR     79  75  87 CALM      30.04S

STATION/POSITION SKY/WX   TEMP    WIND        PRES    WAVE   SWELL
                          AIR SEA DIR/SP/G            HT/PER HT/PER
                          (F)     (DEG/KT/KT) (MB)    (FT/S) (FT/S)
30.1N   87.6W              85 86  280/  8/ 10 1017.8R   1/ 9
29.2N   88.2W              85 89  270/  6/  8 1018.2S
28.8N   86.0W              85 88  320/  4/  6 1017.7    1/ 8
PANAMA CITY BEAC           81 84  300/  2/  3 1017.3R
CAPE SAN BLAS    NOT AVBL
TOWER C                    83     330/  3/  3 1017.5S
28.5N   84.5W              85 87   20/  4/  4 1017.6F   1/ 9

$$
FLZ011-016>038-118-127-128-134-139-239-221000-
NORTH FLORIDA

CITY           SKY/WX    TMP DP  RH WIND       PRES   REMARKS
MARIANNA       CLEAR     76  75  97 CALM      30.04F
TALLAHASSEE    CLEAR     77  73  87 CALM      30.05S
PERRY          CLEAR     72  72 100 CALM      30.05F
CROSS CITY       N/A     75  72  90 CALM      30.05F
GAINESVILLE    PTCLDY    73  73 100 CALM      30.07S
MAYPORT NAS    CLEAR     79  73  82 W6        30.04S
JACKSONVILLE   PTCLDY    74  73  97 CALM      30.04R
JAX NAS        CLEAR     78  71  79 W8        30.05S
JAX CRAIG      CLEAR     78  72  81 CALM      30.04S
JAX CECIL      CLEAR     72  70  94 CALM      30.05S
FERNANDINA BEA FAIR      77  72  83 W5        30.02S
ST AUGUSTINE   CLEAR    N/A N/A N/A W7        30.06S

STATION/POSITION SKY/WX   TEMP    WIND        PRES    WAVE   SWELL
                          AIR SEA DIR/SP/G            HT/PER HT/PER
                          (F)     (DEG/KT/KT) (MB)    (FT/S) (FT/S)
SHELL POINT                78      10/  3/  5   N/A
KEATON BEACH               76      70/  2/  3 1017.6F
CEDAR KEY                  83      10/  1/  3 1018.2F
FERNANDINA                 78 85  270/  5/  7 1016.5S
30.7N   81.3W                 82                N/A     2/ 3
MAYPORT                    80 84  260/  7/ 10   N/A
31.4N   80.9W              84 85  260/  8/  8 1016.5F   2/ 3   2/ 8
ST AUGUSTINE               77     260/  6/  7 1018.1F

$$
FLZ040-043>046-052-053-057-058-063-144-221000-
INTERIOR CENTRAL FLORIDA

CITY           SKY/WX    TMP DP  RH WIND       PRES   REMARKS
OCALA          CLEAR     72  70  94 CALM      30.07R
LEESBURG       CLEAR     78  74  87 CALM      30.07S
SANFORD        CLEAR     77  73  87 CALM      30.05S
ORLANDO EXEC   CLEAR     80  74  81 S3        30.05F
ORLANDO INTL   PTCLDY    77  73  87 CALM      30.05F
WINTER HAVEN   CLEAR     77  72  84 CALM      30.06F
LAKELAND       CLEAR     75  75 100 CALM      30.06S
BARTOW         FAIR      73  73 100 CALM      30.06S
OKEECHOBEE       N/A     75  73  94 MISG      30.05F

$$
FLZ041-047-054-059-064-141-147-221000-
EAST CENTRAL FLORIDA

CITY           SKY/WX    TMP DP  RH WIND       PRES   REMARKS
DAYTONA BEACH  PTCLDY    75  71  87 CALM      30.06S
DELAND         MOSUNNY   73  72  94 CALM      30.07S
JFK SPACE CTR  PTCLDY    79 N/A N/A SW5       30.05S
CAPE CANAVERAL CLEAR     78  75  92 S3        30.05R
PATRICK AFB    CLEAR     81  77  90 S7        30.05S
MELBOURNE      CLEAR     79  76  90 S5        30.05S
VERO BEACH     CLEAR     77  74  90 S3        30.05S
FT PIERCE      PTCLDY    78  74  87 CALM      30.04F
STUART           N/A     77  75  94 CALM      30.06S

STATION/POSITION SKY/WX   TEMP    WIND        PRES    WAVE   SWELL
                          AIR SEA DIR/SP/G            HT/PER HT/PER
                          (F)     (DEG/KT/KT) (MB)    (FT/S) (FT/S)
28.5N   80.2W              83 85  200/ 10/ 12 1017.5F
28.9N   78.5W              84 86  210/  6/  8 1017.8R   2/ 8   2/ 8
TRIDENT PIER               82 83  190/  6/  7 1016.9F
28.4N   80.5W                 82                N/A     1/ 8
27.6N   80.2W                 82                N/A     1/ 9

$$
FLZ050-056-061-142-242-148-248-149-249-151-251-155-255-
160-260-221000-
WEST CENTRAL FLORIDA

CITY           SKY/WX    TMP DP  RH WIND       PRES   REMARKS
CRYSTAL RIVER  FAIR      72  70  94 CALM      30.06S
INVERNESS      FAIR      72  68  88 CALM      30.07R HAZE
BROOKSVILLE    CLEAR     74  71  91 CALM      30.07S
ZEPHYRHILLS    FAIR      68  68 100 CALM      30.07S
CLEARWATER     CLEAR     78  75  90 CALM      30.05S
TAMPA INTL     PTCLDY    80  73  79 CALM      30.05F
TAMPA EXEC     CLEAR     75  72  88 CALM      30.06S
MACDILL AFB    CLEAR     76  74  94 E3        30.05F
ST PETERSBURG  CLEAR     83  73  72 CALM      30.03F
SARASOTA       CLEAR     80  73  79 CALM      30.03S
VENICE           N/A    N/A N/A N/A MISG        N/A

STATION/POSITION SKY/WX   TEMP    WIND        PRES    WAVE   SWELL
                          AIR SEA DIR/SP/G            HT/PER HT/PER
                          (F)     (DEG/KT/KT) (MB)    (FT/S) (FT/S)
CEDAR KEY                  83      10/  1/  3 1018.2F
28.5N   84.5W              85 87   20/  4/  4 1017.6F   1/ 9
27.3N   84.3W                 88                N/A     1/ 8
CLEARWATER BEACH           83 90  130/  3/  4 1017.2F
MIDDLE TAMPA BAY           81      CALM  /  2 1017.6F
VENICE                     78 88  130/  6/  7 1016.7F

$$
FLZ066-069-070-075>078-162-262-165-265-221000-
SOUTHWEST FLORIDA AND KEYS

CITY           SKY/WX    TMP DP  RH WIND       PRES   REMARKS
PUNTA GORDA    CLEAR     76  73  91 CALM      30.05F
FT MYERS       CLEAR     77  74  90 CALM      30.03F
SOUTHWEST INTL CLEAR     76  73  91 E3        30.04S
MARCO ISLAND   SUNNY     75  72  88 E5        30.04S
MARATHON       PTCLDY    85  76  74 E6        30.04S
KEY WEST NAS   PTCLDY    84  76  76 NE5       30.03F THUNDER
KEY WEST INTL  CLEAR     85  76  74 NE5       30.04S

STATION/POSITION SKY/WX   TEMP    WIND        PRES    WAVE   SWELL
                          AIR SEA DIR/SP/G            HT/PER HT/PER
                          (F)     (DEG/KT/KT) (MB)    (FT/S) (FT/S)
VENICE                     78 88  130/  6/  7 1016.7F
NAPLES                     78     120/  4/  5 1017.6F
DRY TORTUGAS               85      60/ 12/ 13 1016.6F
NW FL BAY                  85      60/  8/ 10 1017.7F
SAND KEY                   85      80/ 11/ 14 1017.0F
SOMBRERO KEY               85      70/  7/  8 1017.9R
LONG KEY                   85 89   90/  8/ 10 1018.0F
MOLASSES REEF              85 88   90/  8/  9 1017.1F

$$
FLZ067-068-071>074-168-172>174-221000-
SOUTHEAST FLORIDA

CITY           SKY/WX    TMP DP  RH WIND       PRES   REMARKS
W PALM BEACH   PTCLDY    81  76  84 CALM      30.04S
FT LAUDER-EXEC CLEAR     82  76  81 CALM      30.04F
FT LAUDERDALE  PTCLDY    84  72  67 CALM      30.03F
POMPANO BEACH    N/A     85  76  74 SE3       30.04F
PEMBROKE PINES CLEAR     81  75  82 SE3       30.05F
OPA LOCKA      CLEAR     80  72  76 CALM      30.04F
MIAMI          MOCLDY    81  73  76 E5        30.04F
WEST KENDALL   PTCLDY    79  73  82 E5        30.04F
HOMESTEAD      PTCLDY    78  75  89 W2        30.04F

STATION/POSITION SKY/WX   TEMP    WIND        PRES    WAVE   SWELL
                          AIR SEA DIR/SP/G            HT/PER HT/PER
                          (F)     (DEG/KT/KT) (MB)    (FT/S) (FT/S)
PORT EVERGLADES            84     140/  2/  3 1017.0
VIRGINIA KEY               85 89   80/  8/ 11   N/A
LAKE WORTH                 84 87  160/  4/  6 1017.1R
FOWEY ROCKS                84 87   90/ 11/ 12 1017.4F
SETTLEMENT POINT           82     130/  4/  5 1018.0F

$$





U.S. Dept. of Commerce
NOAA National Weather Service
1325 East West Highway
Silver Spring, MD 20910
E-mail: w-nws.webmaster@noaa.gov
Page last modified: May 16, 2007
NATIONAL WEATHER SERVICE: for Safety, for Work, for Fun - FOR LIFE